Weather History for Glencoe, MN

Change the Weather History Date:

Saturday, October 20, 2012

  Actual Average (KHCD) Record (KHCD)
Temperature  
Mean Temperature 43 °F -  
Max Temperature 50 °F 57 °F 79 °F (1978)
Min Temperature 36 °F 34 °F 20 °F (1989)
Degree Days  
Heating Degree Days 22    
Moisture  
Dew Point 42 °F    
Average Humidity 91    
Maximum Humidity 99    
Minimum Humidity 75    
Precipitation  
Precipitation 0.00 in - - ()
Sea Level Pressure  
Sea Level Pressure 29.77 in    
Wind  
Wind Speed 3 mph (SSE)    
Max Wind Speed 8 mph    
Max Gust Speed -    
Visibility 7 miles    
Events Fog    
Averages and records for this station are not official NWS values.
T = Trace of Precipitation, MM = Missing Value Source: NWS Daily Summary

Daily Weather History Graph

Daily Weather History Graph

Search for Another Location

Airport:

Trip Planner

Search our weather history database for the weather conditions in past years. The results will help you decide how hot, cold, wet, or windy it might be!

Date:

Astronomy

Oct. 20, 2012 Rise Set
Actual Time 7:38 AM CDT 6:22 PM CDT
Civil Twilight 7:09 AM CDT 6:52 PM CDT
Nautical Twilight 6:35 AM CDT 7:26 PM CDT
Astronomical Twilight 6:01 AM CDT 7:59 PM CDT
Moon 1:22 PM CDT (10/20) 11:02 PM CDT (10/20)
Length of Visible Light 11h 42m
Length of Day
10h 43m
Waxing Crescent, 34% of the Moon is Illuminated
Oct 20
Waxing Crescent
Oct 21
First Quarter
Oct 29
Full
Nov 6
Last Quarter
Nov 13
New

Hourly Weather History & Observations

Time (CDT) Temp. Windchill Dew Point Humidity Pressure Visibility Wind Dir Wind Speed Gust Speed Precip Events Conditions
12:15 AM 41.4 °F - 40.3 °F 96% 29.74 in 10.0 mi Calm Calm - N/A   Scattered Clouds
12:35 AM 40.8 °F - 39.9 °F 97% 29.74 in 7.0 mi Calm Calm - N/A   Scattered Clouds
12:56 AM 40.6 °F - 39.6 °F 96% 29.74 in 7.0 mi Calm Calm - N/A   Mostly Cloudy
1:15 AM 39.4 °F - 38.5 °F 97% 29.74 in 0.8 mi Calm Calm - N/A   Overcast
1:35 AM 38.3 °F - 37.4 °F 97% 29.74 in 0.8 mi Calm Calm - N/A   Mostly Cloudy
1:56 AM 38.1 °F - 37.2 °F 97% 29.74 in 1.2 mi Calm Calm - N/A   Mostly Cloudy
2:15 AM 36.3 °F 31.6 °F 35.6 °F 97% 29.75 in 0.2 mi WSW 5.8 mph - N/A Fog Fog
2:35 AM 38.8 °F 36.5 °F 38.1 °F 97% 29.74 in 0.8 mi SW 3.5 mph - N/A   Overcast
2:55 AM 39.7 °F 36.5 °F 39.2 °F 98% 29.75 in 1.0 mi SW 4.6 mph - N/A   Overcast
3:15 AM 40.5 °F - 39.7 °F 97% 29.75 in 1.8 mi Calm Calm - N/A   Overcast
3:35 AM 40.6 °F 38.6 °F 39.9 °F 97% 29.75 in 3.0 mi WSW 3.5 mph - N/A   Overcast
3:55 AM 41.4 °F - 41.0 °F 99% 29.75 in 7.0 mi Calm Calm - N/A   Overcast
4:15 AM 41.5 °F - 41.0 °F 98% 29.75 in 7.0 mi Calm Calm - N/A   Overcast
4:35 AM 41.9 °F - 41.2 °F 97% 29.75 in 7.0 mi Calm Calm - N/A   Overcast
4:55 AM 42.1 °F 40.2 °F 41.4 °F 97% 29.76 in 7.0 mi SW 3.5 mph - N/A   Overcast
5:15 AM 42.3 °F - 41.5 °F 97% 29.76 in 7.0 mi Calm Calm - N/A   Overcast
5:35 AM 42.4 °F - 41.9 °F 98% 29.76 in 7.0 mi Calm Calm - N/A   Overcast
5:55 AM 43.0 °F - 42.3 °F 97% 29.76 in 7.0 mi Calm Calm - N/A   Overcast
6:15 AM 42.8 °F - 42.3 °F 98% 29.76 in 7.0 mi Calm Calm - N/A   Overcast
6:36 AM 43.2 °F - 42.4 °F 97% 29.76 in 5.0 mi Calm Calm - N/A   Overcast
6:55 AM 43.2 °F - 42.4 °F 97% 29.77 in 4.0 mi Calm Calm - N/A   Overcast
7:15 AM 43.3 °F - 42.8 °F 98% 29.77 in 0.5 mi Calm Calm - N/A Fog Fog
7:35 AM 43.3 °F - 42.8 °F 98% 29.78 in 0.5 mi Calm Calm - N/A Fog Fog
7:55 AM 43.2 °F 41.5 °F 42.4 °F 97% 29.78 in 1.0 mi SSW 3.5 mph - N/A   Overcast
8:15 AM 43.2 °F 41.5 °F 42.8 °F 99% 29.78 in 0.8 mi SSW 3.5 mph - N/A   Overcast
8:35 AM 43.2 °F 41.5 °F 42.8 °F 99% 29.78 in 3.0 mi South 3.5 mph - N/A   Overcast
8:55 AM 43.2 °F 40.5 °F 42.8 °F 99% 29.79 in 4.0 mi South 4.6 mph - N/A   Overcast
9:15 AM 43.7 °F 41.1 °F 43.0 °F 97% 29.79 in 4.0 mi SSW 4.6 mph - N/A   Overcast
9:36 AM 43.3 °F 39.2 °F 42.8 °F 98% 29.80 in 4.0 mi SSW 6.9 mph - N/A   Overcast
9:55 AM 43.7 °F 40.3 °F 43.0 °F 97% 29.80 in 7.0 mi South 5.8 mph - N/A   Overcast
10:15 AM 43.7 °F 40.3 °F 42.8 °F 97% 29.81 in 7.0 mi South 5.8 mph - N/A   Overcast
10:35 AM 43.9 °F 40.5 °F 42.8 °F 96% 29.81 in 10.0 mi SW 5.8 mph - N/A   Overcast
10:55 AM 44.1 °F 40.8 °F 42.4 °F 94% 29.81 in 10.0 mi SSW 5.8 mph - N/A   Overcast
11:15 AM 44.4 °F 40.5 °F 42.8 °F 94% 29.81 in 7.0 mi SSW 6.9 mph - N/A   Overcast
11:36 AM 44.6 °F 40.7 °F 42.6 °F 93% 29.81 in 10.0 mi South 6.9 mph - N/A   Overcast
11:55 AM 45.0 °F 41.2 °F 42.8 °F 92% 29.80 in 7.0 mi SSW 6.9 mph - N/A   Overcast
12:15 PM 45.5 °F 42.5 °F 42.8 °F 90% 29.80 in 10.0 mi South 5.8 mph - N/A   Overcast
12:35 PM 45.9 °F 42.3 °F 42.8 °F 89% 29.79 in 10.0 mi SSE 6.9 mph - N/A   Overcast
12:56 PM 46.4 °F 43.5 °F 42.8 °F 87% 29.79 in 10.0 mi SSE 5.8 mph - N/A   Overcast
1:15 PM 47.3 °F - 43.2 °F 86% 29.78 in 10.0 mi South 6.9 mph - N/A   Overcast
1:35 PM 47.8 °F - 43.2 °F 84% 29.77 in 10.0 mi South 6.9 mph - N/A   Overcast
1:55 PM 48.4 °F - 43.5 °F 83% 29.77 in 10.0 mi South 8.1 mph - N/A   Overcast
2:15 PM 48.7 °F - 43.3 °F 82% 29.76 in 10.0 mi SSE 8.1 mph - N/A   Overcast
2:35 PM 49.5 °F - 43.7 °F 81% 29.77 in 10.0 mi South 5.8 mph - N/A   Overcast
2:55 PM 50.0 °F - 43.7 °F 79% 29.77 in 10.0 mi South 4.6 mph - N/A   Overcast
3:15 PM 50.2 °F - 43.7 °F 78% 29.77 in 10.0 mi South 6.9 mph - N/A   Overcast
3:35 PM 50.4 °F - 43.7 °F 78% 29.76 in 10.0 mi South 3.5 mph - N/A   Overcast
3:55 PM 50.9 °F - 43.3 °F 75% 29.76 in 10.0 mi SSE 8.1 mph - N/A   Overcast
4:15 PM 50.9 °F - 43.7 °F 76% 29.76 in 10.0 mi South 5.8 mph - N/A   Overcast
4:35 PM 50.5 °F - 43.3 °F 76% 29.76 in 10.0 mi SSE 5.8 mph - N/A   Overcast
4:55 PM 50.5 °F - 43.7 °F 77% 29.76 in 10.0 mi SE 5.8 mph - N/A   Overcast
5:16 PM 50.0 °F - 43.5 °F 78% 29.77 in 10.0 mi SE 6.9 mph - N/A   Overcast
5:35 PM 50.0 °F - 43.5 °F 78% 29.77 in 10.0 mi SE 6.9 mph - N/A   Overcast
5:55 PM 50.0 °F - 43.7 °F 79% 29.77 in 10.0 mi SE 5.8 mph - N/A   Mostly Cloudy
6:15 PM 49.5 °F - 43.7 °F 81% 29.77 in 10.0 mi ESE 6.9 mph - N/A   Mostly Cloudy
6:36 PM 48.2 °F - 43.2 °F 83% 29.77 in 10.0 mi ESE 5.8 mph - N/A   Scattered Clouds
6:55 PM 47.1 °F - 42.6 °F 84% 29.77 in 10.0 mi ESE 5.8 mph - N/A   Clear
7:15 PM 44.6 °F 40.7 °F 41.2 °F 88% 29.76 in 10.0 mi ESE 6.9 mph - N/A   Clear
7:36 PM 45.1 °F 41.4 °F 42.3 °F 90% 29.76 in 10.0 mi ESE 6.9 mph - N/A   Clear
7:55 PM 45.1 °F 42.0 °F 42.4 °F 90% 29.77 in 10.0 mi SE 5.8 mph - N/A   Clear
8:15 PM 45.0 °F 41.2 °F 42.3 °F 90% 29.77 in 10.0 mi ESE 6.9 mph - N/A   Clear
8:35 PM 44.1 °F 40.1 °F 41.5 °F 91% 29.77 in 10.0 mi ESE 6.9 mph - N/A   Clear
8:55 PM 44.8 °F 41.0 °F 42.3 °F 91% 29.77 in 10.0 mi SE 6.9 mph - N/A   Clear
9:15 PM 45.0 °F 41.8 °F 42.3 °F 90% 29.79 in 10.0 mi ESE 5.8 mph - N/A   Clear
9:35 PM 44.6 °F 41.4 °F 42.1 °F 91% 29.79 in 10.0 mi SE 5.8 mph - N/A   Clear
9:55 PM 44.1 °F 40.1 °F 41.9 °F 92% 29.78 in 10.0 mi SE 6.9 mph - N/A   Clear
10:15 PM 44.6 °F 41.4 °F 41.9 °F 90% 29.79 in 10.0 mi SE 5.8 mph - N/A   Clear
10:35 PM 44.6 °F 40.7 °F 42.1 °F 91% 29.79 in 10.0 mi SE 6.9 mph - N/A   Clear
10:55 PM 44.8 °F 41.6 °F 42.3 °F 91% 29.79 in 10.0 mi SE 5.8 mph - N/A   Clear
11:35 PM 45.0 °F 41.2 °F 42.4 °F 91% 29.79 in 10.0 mi SE 6.9 mph - N/A   Clear
11:55 PM 45.0 °F 41.2 °F 42.4 °F 91% 29.79 in 10.0 mi SSE 6.9 mph - N/A   Clear